TimeCST,TemperatureF,Dew PointF,Humidity,Sea Level PressureIn,VisibilityMPH,Wind Direction,Wind SpeedMPH,Gust SpeedMPH,PrecipitationIn,Events,Conditions,WindDirDegrees,DateUTC
12:15 AM,46.4,41.0,81,29.90,10.0,East,4.6,-,N/A,,Clear,100,2012-12-07 06:15:00
12:35 AM,46.4,41.0,81,29.90,10.0,ESE,4.6,-,N/A,,Scattered Clouds,110,2012-12-07 06:35:00
12:55 AM,46.4,41.0,81,29.89,10.0,ESE,4.6,-,N/A,,Mostly Cloudy,120,2012-12-07 06:55:00
1:15 AM,46.4,41.0,81,29.89,10.0,ESE,3.5,-,N/A,,Mostly Cloudy,120,2012-12-07 07:15:00
1:35 AM,44.6,39.2,81,29.89,10.0,ESE,3.5,-,N/A,,Overcast,110,2012-12-07 07:35:00
1:55 AM,44.6,39.2,81,29.89,10.0,Calm,Calm,-,N/A,,Overcast,0,2012-12-07 07:55:00
2:15 AM,44.6,41.0,87,29.89,10.0,Calm,Calm,-,N/A,,Overcast,0,2012-12-07 08:15:00
2:35 AM,44.6,41.0,87,29.89,10.0,Calm,Calm,-,N/A,,Overcast,0,2012-12-07 08:35:00
2:55 AM,44.6,41.0,87,29.88,10.0,Calm,Calm,-,N/A,,Overcast,0,2012-12-07 08:55:00
3:15 AM,44.6,42.8,93,29.88,10.0,SSE,3.5,-,N/A,,Overcast,150,2012-12-07 09:15:00
3:35 AM,46.4,42.8,87,29.87,10.0,Calm,Calm,-,N/A,,Overcast,0,2012-12-07 09:35:00
3:55 AM,46.4,42.8,87,29.87,10.0,Calm,Calm,-,N/A,,Overcast,0,2012-12-07 09:55:00
4:15 AM,46.4,42.8,87,29.87,10.0,Calm,Calm,-,N/A,,Overcast,0,2012-12-07 10:15:00
4:35 AM,46.4,42.8,87,29.87,10.0,South,3.5,-,N/A,,Overcast,180,2012-12-07 10:35:00
4:55 AM,46.4,42.8,87,29.87,10.0,South,3.5,-,N/A,,Overcast,180,2012-12-07 10:55:00
5:15 AM,46.4,41.0,81,29.87,10.0,SSW,3.5,-,N/A,,Overcast,200,2012-12-07 11:15:00
5:35 AM,46.4,42.8,87,29.88,10.0,Calm,Calm,-,N/A,,Overcast,0,2012-12-07 11:35:00
5:55 AM,46.4,42.8,87,29.88,10.0,Calm,Calm,-,N/A,,Overcast,0,2012-12-07 11:55:00
6:15 AM,46.4,42.8,87,29.89,10.0,WSW,3.5,-,N/A,,Overcast,250,2012-12-07 12:15:00
6:35 AM,46.4,42.8,87,29.89,10.0,WNW,3.5,-,N/A,,Overcast,290,2012-12-07 12:35:00
6:55 AM,46.4,42.8,87,29.89,10.0,West,4.6,-,N/A,,Overcast,260,2012-12-07 12:55:00
7:15 AM,46.4,42.8,87,29.89,10.0,West,3.5,-,N/A,,Overcast,270,2012-12-07 13:15:00
7:35 AM,46.4,42.8,87,29.89,10.0,West,4.6,-,N/A,,Overcast,270,2012-12-07 13:35:00
7:55 AM,46.4,42.8,87,29.89,10.0,West,4.6,-,N/A,,Overcast,280,2012-12-07 13:55:00
8:15 AM,48.2,42.8,82,29.90,10.0,West,4.6,-,N/A,,Overcast,280,2012-12-07 14:15:00
8:35 AM,48.2,42.8,82,29.90,10.0,West,3.5,-,N/A,,Overcast,270,2012-12-07 14:35:00
8:55 AM,48.2,42.8,82,29.90,10.0,West,3.5,-,N/A,,Overcast,270,2012-12-07 14:55:00
9:15 AM,48.2,42.8,82,29.91,10.0,West,4.6,-,N/A,,Overcast,270,2012-12-07 15:15:00
9:35 AM,48.2,42.8,82,29.91,10.0,WSW,4.6,-,N/A,,Overcast,240,2012-12-07 15:35:00
9:55 AM,48.2,42.8,82,29.91,10.0,WSW,5.8,-,N/A,,Overcast,250,2012-12-07 15:55:00
10:15 AM,48.2,42.8,82,29.90,10.0,West,3.5,-,N/A,,Overcast,270,2012-12-07 16:15:00
10:35 AM,50.0,42.8,76,29.90,10.0,NNW,3.5,-,N/A,,Overcast,340,2012-12-07 16:35:00
10:55 AM,50.0,42.8,76,29.89,10.0,Calm,Calm,-,N/A,,Overcast,0,2012-12-07 16:55:00
11:15 AM,51.8,42.8,71,29.89,10.0,Calm,Calm,-,N/A,,Mostly Cloudy,0,2012-12-07 17:15:00
11:35 AM,51.8,42.8,71,29.89,10.0,West,5.8,-,N/A,,Partly Cloudy,270,2012-12-07 17:35:00
11:55 AM,51.8,44.6,76,29.88,10.0,West,4.6,-,N/A,,Clear,260,2012-12-07 17:55:00
12:15 PM,53.6,44.6,72,29.87,10.0,SSW,4.6,-,N/A,,Clear,200,2012-12-07 18:15:00
12:35 PM,53.6,44.6,72,29.87,10.0,WNW,3.5,-,N/A,,Clear,300,2012-12-07 18:35:00
12:55 PM,53.6,42.8,67,29.86,10.0,Calm,Calm,-,N/A,,Scattered Clouds,0,2012-12-07 18:55:00
1:15 PM,53.6,44.6,72,29.85,10.0,Calm,Calm,-,N/A,,Scattered Clouds,0,2012-12-07 19:15:00
1:35 PM,55.4,44.6,67,29.84,10.0,Calm,Calm,-,N/A,,Partly Cloudy,0,2012-12-07 19:35:00
1:55 PM,55.4,44.6,67,29.84,10.0,Calm,Calm,-,N/A,,Mostly Cloudy,0,2012-12-07 19:55:00
2:15 PM,55.4,44.6,67,29.84,10.0,Calm,Calm,-,N/A,,Overcast,0,2012-12-07 20:15:00
2:35 PM,55.4,44.6,67,29.84,10.0,Calm,Calm,-,N/A,,Mostly Cloudy,0,2012-12-07 20:35:00
2:55 PM,55.4,44.6,67,29.84,10.0,ENE,4.6,-,N/A,,Overcast,60,2012-12-07 20:55:00
3:15 PM,55.4,44.6,67,29.84,10.0,NNE,4.6,-,N/A,,Mostly Cloudy,30,2012-12-07 21:15:00
3:35 PM,55.4,44.6,67,29.85,10.0,North,4.6,-,N/A,,Overcast,360,2012-12-07 21:35:00
3:55 PM,55.4,44.6,67,29.85,10.0,Calm,Calm,-,N/A,,Overcast,0,2012-12-07 21:55:00
4:15 PM,55.4,44.6,67,29.85,10.0,Calm,Calm,-,N/A,,Overcast,0,2012-12-07 22:15:00
4:35 PM,53.6,44.6,72,29.86,10.0,Calm,Calm,-,N/A,,Overcast,0,2012-12-07 22:35:00
4:55 PM,53.6,44.6,72,29.86,10.0,Calm,Calm,-,N/A,,Overcast,0,2012-12-07 22:55:00
5:15 PM,53.6,44.6,72,29.86,10.0,Calm,Calm,-,N/A,,Mostly Cloudy,0,2012-12-07 23:15:00
5:35 PM,53.6,42.8,67,29.86,10.0,Calm,Calm,-,N/A,,Mostly Cloudy,0,2012-12-07 23:35:00
5:55 PM,51.8,44.6,76,29.87,10.0,NNE,3.5,-,N/A,,Overcast,20,2012-12-07 23:55:00
6:15 PM,53.6,42.8,67,29.87,10.0,NNE,3.5,-,N/A,,Overcast,20,2012-12-08 00:15:00
6:35 PM,51.8,44.6,76,29.87,10.0,NE,4.6,-,N/A,,Overcast,40,2012-12-08 00:35:00
7:15 PM,51.8,44.6,76,29.88,10.0,North,4.6,-,N/A,,Overcast,10,2012-12-08 01:15:00
7:35 PM,51.8,44.6,76,29.87,9.0,NNE,4.6,-,N/A,,Overcast,20,2012-12-08 01:35:00
7:55 PM,50.0,44.6,82,29.88,8.0,NNE,3.5,-,N/A,,Overcast,20,2012-12-08 01:55:00
8:15 PM,50.0,42.8,76,29.88,7.0,North,4.6,-,N/A,,Overcast,10,2012-12-08 02:15:00
8:35 PM,50.0,42.8,76,29.89,6.0,North,4.6,-,N/A,,Overcast,10,2012-12-08 02:35:00
8:55 PM,50.0,42.8,76,29.89,5.0,North,3.5,-,N/A,,Overcast,10,2012-12-08 02:55:00
9:15 PM,48.2,42.8,82,29.89,5.0,North,6.9,-,N/A,,Overcast,10,2012-12-08 03:15:00
9:35 PM,48.2,42.8,82,29.90,5.0,North,3.5,-,N/A,,Overcast,360,2012-12-08 03:35:00
9:55 PM,48.2,42.8,82,29.91,5.0,North,4.6,-,N/A,,Overcast,360,2012-12-08 03:55:00
10:15 PM,48.2,42.8,82,29.92,5.0,North,3.5,-,N/A,,Overcast,360,2012-12-08 04:15:00
10:35 PM,48.2,42.8,82,29.92,4.0,North,4.6,-,N/A,,Overcast,360,2012-12-08 04:35:00
10:55 PM,46.4,42.8,87,29.92,3.0,North,3.5,-,N/A,,Overcast,360,2012-12-08 04:55:00
11:15 PM,46.4,42.8,87,29.92,3.0,Calm,Calm,-,N/A,,Overcast,0,2012-12-08 05:15:00
11:35 PM,46.4,42.8,87,29.92,4.0,Calm,Calm,-,N/A,,Overcast,0,2012-12-08 05:35:00
11:55 PM,46.4,42.8,87,29.93,4.0,Calm,Calm,-,N/A,,Overcast,0,2012-12-08 05:55:00